Location: The Saddle
(36.8333°N, 80.3417°W)
Time: 01:05:35
(UTC-04:00)

EO-79 - Visible Passes

Search period start: 19 September 2024 00:00
Search period end: 29 September 2024 00:00
Orbit: 553 x 567 km, 98.1° (Epoch: 18 September)

Date Brightness Start Highest point End Pass type
(mag) Time Alt. Az. Time Alt. Az. Time Alt. Az.
19 Sep ? 05:12:32 10° N 05:15:27 42° NNW 05:15:27 42° NNW visible
20 Sep ? 05:11:17 10° N 05:14:06 41° NNW 05:14:06 41° NNW visible
21 Sep ? 05:10:02 10° N 05:12:44 39° NNW 05:12:44 39° NNW visible
22 Sep ? 05:08:44 10° N 05:11:21 38° N 05:11:21 38° N visible
23 Sep ? 05:07:25 10° N 05:09:56 36° N 05:09:56 36° N visible
24 Sep ? 05:06:06 10° N 05:08:29 35° N 05:08:29 35° N visible
25 Sep ? 05:04:44 10° N 05:07:02 33° N 05:07:02 33° N visible
26 Sep ? 05:03:22 10° N 05:05:33 31° N 05:05:33 31° N visible
27 Sep ? 05:01:59 10° N 05:04:02 29° N 05:04:02 29° N visible
28 Sep ? 05:00:34 10° N 05:02:30 28° N 05:02:30 28° N visible
